Flight Track Log - Related Links

Times and Time Zones

All times are in EDT time to prevent confusion due to time zone crossing. See the N363SR flight status page for this flight to view local times or setup timezone preferences in your user account.

Time Position Orientation Groundspeed Altitude Reporting Facility
EDT Latitude Longitude Course Direction KTS MPH feet Rate Location/Type
08:34AM 41.3500 -73.5167 217° Southwest 95 109 2,200  Level New York TRACON
08:35AM 41.3167 -73.5500 217° Southwest 116 133 3,000 762 Climbing New York TRACON
08:36AM 41.2833 -73.5667 201° Southwest 118 136 3,800 893 Climbing New York TRACON
08:37AM 41.2667 -73.5833 217° Southwest 108 124 4,800 900 Climbing New York TRACON
08:38AM 41.2333 -73.5833 180° South 97 112 5,600 600 Climbing New York TRACON
08:39AM 41.2000 -73.6000 201° Southwest 123 142 6,000 200 Climbing New York TRACON
08:40AM 41.1667 -73.6167 201° Southwest 152 175 6,000  Level New York TRACON
08:41AM 41.1167 -73.6333 194° South 159 183 6,000  Level New York TRACON
08:42AM 41.0833 -73.6333 180° South 155 178 6,000  Level New York TRACON
08:43AM 41.0333 -73.6500 194° South 162 186 6,000  Level New York TRACON
08:44AM 40.9833 -73.6667 194° South 166 191 6,000  Level New York TRACON
08:45AM 40.9500 -73.6833 201° Southwest 164 189 6,000  Level New York TRACON
08:46AM 40.9000 -73.7000 194° South 165 190 6,000  Level New York TRACON
08:47AM 40.8667 -73.7000 180° South 166 191 6,000  Level New York TRACON
08:48AM 40.8167 -73.7167 194° South 168 193 6,000  Level New York TRACON
08:49AM 40.7667 -73.7333 194° South 167 192 6,000  Level New York TRACON
08:50AM 40.7333 -73.7500 201° Southwest 168 193 6,000  Level New York TRACON
08:51AM 40.6833 -73.7667 194° South 159 183 6,000  Level New York TRACON
08:52AM 40.6333 -73.7667 180° South 144 166 6,000  Level New York TRACON
08:53AM 40.6000 -73.8000 217° Southwest 154 177 6,000  Level New York TRACON
08:54AM 40.5500 -73.8333 207° Southwest 159 183 6,000  Level New York TRACON
08:55AM 40.5167 -73.8667 217° Southwest 163 188 6,000  Level New York TRACON
08:56AM 40.4667 -73.9000 207° Southwest 164 189 6,000  Level New York TRACON
08:57AM 40.4333 -73.9167 201° Southwest 165 190 6,000  Level New York TRACON
08:58AM 40.4000 -73.9500 217° Southwest 163 188 6,000  Level New York TRACON
08:59AM 40.3500 -73.9833 207° Southwest 165 190 6,000  Level New York TRACON
09:00AM 40.3167 -74.0167 217° Southwest 162 186 6,000  Level New York TRACON
09:01AM 40.2667 -74.0333 194° South 163 188 6,000  Level New York TRACON
09:03AM 40.2190 -74.0492 194° South  Level FlightAware Approximate
09:10AM 39.9876 -74.2613 215° Southwest  Level FlightAware Approximate
09:11AM 39.9540 -74.2919 215° Southwest  Level FlightAware Approximate
09:12AM 39.9204 -74.3225 215° Southwest  Level FlightAware Approximate
09:13AM 39.8868 -74.3531 215° Southwest  Level FlightAware Approximate
09:14AM 39.8531 -74.3836 215° Southwest  Level FlightAware Approximate
09:15AM 39.8195 -74.4141 215° Southwest  Level FlightAware Approximate
09:16AM 39.8017 -74.4615 247° West  Level FlightAware Approximate
09:17AM 39.8000 -74.5144 270° West  Level FlightAware Approximate
09:18AM 39.8000 -74.5677 270° West  Level FlightAware Approximate
09:19AM 39.8000 -74.6211 270° West  Level FlightAware Approximate
09:20AM 39.7902 -74.6724 252° West  Level FlightAware Approximate
09:21AM 39.7833 -74.7243 270° West  Level FlightAware Approximate
09:22AM 39.7833 -74.7777 270° West  Level FlightAware Approximate
09:23AM 39.7833 -74.8310 270° West  Level FlightAware Approximate
09:24AM 39.7767 -74.8833 255° West  Level FlightAware Approximate
09:25AM 39.7667 -74.9333 255° West  Level FlightAware Approximate
09:26AM 39.7784 -74.9478 255° West  Level Estimated
09:27AM 39.7784 -74.9478 255° West  Level Estimated

Login

Don't have an account? Register now (free) for customized features, flight alerts, and more!